Погода в Жалтыре

Поиск расширенной информации на нашем сайте:

Полезная информация:

Новости сайта



02.01.2020
Опубликован Долгосрочный прогноз погоды по городам России и ближнего зарубежья на январь 2020 года.
Карты: Прогноз на январь и февраль 2020 года, Сравнение прогнозируемой аномалии приземной температуры воздуха на январь 2020 года по разным моделям.




Погода в Жалтыре - сегодня

Время (UTC), дата Ветер
(°,м/с) 
Видим.   Явления Облачность Т
(°С)
Тd
(°С)
f(%) Тe
(°С)
Pmin
(гПа)
dP
(гПа)
Po
(мм)
O2
(г/м3)
Тmin Tmax R s Состояние
почвы
09 22.10.21 220 (ЮЗ) 9-18{18}  4000 м  {снег}  10/10 600 м 
[Sc]
+2.1 -1.2 79 -2  1017.5  -0.6  735  294           
12 22.10.21 220 (ЮЗ) 9-15{18}  4000 м  слаб. ливневой снег  10/10 600 м кучево-дожд. 
[Cb cap]
+0.7 -0.7 90 -4  1018  0.3  735  295           
15 22.10.21 230 (ЮЗ) 7-15{15}  н/о  в посл. час ливневой дождь  10/10 600 м кучево-дожд. 
[Cb cap]
+1.7 +0.1 89 -2  1019.2  1.3  736  295    +3.6       
18 22.10.21 230 (ЮЗ) 6{15}  н/о  слаб. дождь{ливн. осадки}  10/10 300 м 
[Frnb|Ns]
+2.5 +1.2 91 1019.6  0.5  737  294    +3.6  0.4     
21 22.10.21 220 (ЮЗ) н/о  слаб. дождь  10/10 300 м 
[Frnb|Ns]
+3.1 +2.1 93 +1  1019  -0.5  736  293           
00 23.10.21 220 (ЮЗ) н/о  {дождь}  10/10 600 м 
[Sc]
+4.5 +1.8 83 +2  1018  -0.8  736  291           
03 23.10.21 220 (ЮЗ) 4000 м    8/0 средняя, верхняя 
[Ac As|Cs]
+3.1 +0.2 81 1018.3  0.1  736  293           
06 23.10.21 240 (ЮЗ) 8-15{15}  4000 м    8/3 600 м средняя 
[Cu hum|Ac trans]
+7 +2.2 71 +4  1018.9  1.1  736  289  +1.7       
09 23.10.21 230 (ЮЗ) 9-16{16}  4000 м    4/0 средняя, верхняя 
[Ac lent|Ci]
+11.5 +2.6 54 +10  1018.1  -0.2  736  284           
12 23.10.21 250 (З) 7{16}  4000 м    8/8 600 м 
[Cu Sc]
+12.1 +1.7 49 +11  1018.6  0.6  737  284           
15 23.10.21 240 (ЮЗ) н/о    9/9 600 м 
[Sc]
+10.2 +4.7 69 +9  1020.7  1.8  738  286    +12.6       
18 23.10.21 240 (ЮЗ) н/о    10/10 600 м 
[Sc]
+10.4 +7.1 80 +9  1021.1  0.4  738  285    +12.6       
21 23.10.21 260 (З) н/о    9/9 600 м 
[Sc]
+10 +7.1 82 +8  1022.3  1.1  739  286           
00 24.10.21 240 (ЮЗ) н/о    9/9 600 м 
[Sc]
+7.6 +5.1 84 +6  1023  0.4  740  289           
03 24.10.21 200 (Ю) 4000 м    8/0 средняя 
[Ac As]
+5.3 +3.1 86 +4  1024.4  740  292           
06 24.10.21 240 (ЮЗ) 4000 м    10/10 600 м 
[Sc]
+10.6 +3.3 61 +9  1023.5  -0.2  740  287  +5.3         
09 24.10.21 250 (З) 4000 м    4/0 средняя 
[Ac lent]
+14.8 +1.6 41 +14  1022.4  -0.5  740  282           
12 24.10.21 240 (ЮЗ) 4000 м    8/4 600 м средняя 
[Sc|Ac cuf]
+13.4 -1.7 35 +13  1022  -0.6  739  284           
15 24.10.21 220 (ЮЗ) н/о    3/0 средняя 
[Ac lent]
+5.9 -3 53 +6  1022.8  -0.2  739  292    +16.3       
18 24.10.21 200 (Ю) н/о    ясно 
+1.9 -4.5 62 1022.4  -0.9  738  296    +16.3       
21 24.10.21 200 (Ю) н/о    4/0 верхняя 
[Ci fib]
+2.3 -2.6 70 +2  1021.1  -1.2  738  295           
00 25.10.21 190 (Ю) н/о    8/0 верхняя 
[Cs]
+0.6 -3 77 1020.3  -1  737  297           
03 25.10.21 180 (Ю) 4000 м    8/0 средняя, верхняя 
[Ac lent|Cs]
+0.1 -3.1 79 -1  1020.4  737  297           
06 25.10.21 210 (ЮЗ) 4000 м    4/0 верхняя 
[Cs]
+9.2 +0.3 54 +9  1018.7  -0.4  737  287  +0.1         
09 25.10.21 230 (ЮЗ) 4000 м    6/0 средняя 
[Ac As]
+13.7 +0.9 42 +13  1016.8  -1.3  736  282           
Время (UTC), дата Ветер
(°,м/с) 
Видим.   Явления Облачность Т
(°С)
Тd
(°С)
f(%) Тe
(°С)
Pmin
(гПа)
dP
(гПа)
Po
(мм)
O2
(г/м3)
Тmin Tmax R s Состояние
почвы

Для получения пояснительной информации подведите курсор к названию столбца.

ПОГОДА в Жалтыре - архив

Всё, что Вы хотите узнать о погоде в Жалтыре - удобно и подробно!

Выберите нужную дату (начиная с 1 января 2019* года) и нажмите кнопку "Найти".
Будут отображены архивные сводки погоды по пункту Жалтыр, начиная с указанной даты.


Отображать данные в формате CSV (для использования в таблицах Excel)


Внимание! Наш архив погоды предназначен исключительно для личного некоммерческого использования в познавательных целях. Если Вам необходимы официальные справки о состоянии погоды (для производственных, юридических, коммерческих и т.п. целей), обращайтесь в органы Росгидромета.

*Примечание: данная дата относится к архиву по метеостанциям СССР (Россия, СНГ, Балтия).
Архив по метеостанциям Зарубежной Европы и Азии (кроме Китая) хранится 10 дней, по другим регионам земного шара (Китай, Африка, Америка, Австралия, Океания) - 1 день.

Жалтыр - район местоположения метеостанции


Название, широта, долгота, высота метеостанции:
Жалтыр 51.6°ш. 69.8°д. 620 м над ур. моря [Казахстан]

Дополнительная информация

В oтличие oт бoльшинства пoгoдных сайтoв мы публикуем пoдрoбную метеoинфoрмацию в детальнoм прoфессиoнальнoм фoрмате.

Характеристики температуры и влажнoсти вoздуха измеряются на высoте 2 м в тени вдали oт зданий и деревьев.
Скoрoсть ветра измеряется на высoте 10 м (на урoвне рoста челoвека скoрoсть ветра ниже в 1.5-2 раза). Если метеoстанция нахoдится в гoрoде или в лесу, тo скoрoсть ветра занижена на 2-4 м/с пo сравнению с oткрытым местoм. Скoрoсть ветра над акватoриями крупных рек и oзёр, а также на вершинах хoлмoв на 2-5 м/с выше, чем в oбычных услoвиях.
Атмoсфернoе давление в разных тoчках местнoсти мoжет значительнo oтличаться oт давления на метеoстанции, в зависимoсти oт услoвий рельефа (при пoдъёме на 10 м давление пoнижается примернo на 1 мм рт.ст.).